Theta_e
310 310 310 310 310 310 311 310 311 310 310 311 311 310 309 309 308 308 308 309 309 309 310 310 310 311 311 312 312 312 311 313 316 317 318 317 314 314 314 313 314 314 314 314 314 315 315 316 315 315 317 317 317 318 317 316 316 321 326 323 320 320 317 317 319 318 319 318 317 317 316 316 316 317 316 316 316 316 316 315 315 315 314 314 313 313 314 314
308 308 308 308 308 309 309 309 309 309 308 309 309 308 308 308 308 308 308 309 309 309 310 310 310 311 311 312 312 312 311 314 318 316 315 314 313 314 314 314 314 314 314 314 314 315 315 315 315 315 316 317 317 317 319 318 317 320 323 321 319 319 317 317 318 317 318 318 317 317 316 315 316 316 316 315 316 316 317 315 315 315 315 314 313 313 313 314
307 307 307 307 307 307 307 307 307 307 307 308 307 308 307 308 308 308 308 309 309 309 310 310 311 311 311 312 311 312 311 316 319 315 313 314 314 314 314 314 313 313 313 314 314 314 314 315 314 315 316 316 316 317 318 318 318 318 320 322 319 317 316 316 317 316 316 317 316 317 316 315 316 316 315 316 316 316 316 315 315 315 315 315 314 313 313 314
307 307 307 307 307 307 307 307 307 307 308 307 308 308 308 308 308 308 308 309 309 309 310 310 310 311 312 311 312 312 311 316 319 315 313 314 313 314 314 314 313 314 314 314 315 314 314 315 315 315 316 316 316 317 317 317 318 317 318 320 317 315 316 316 316 316 316 316 316 316 316 316 316 316 315 315 316 316 315 313 314 315 315 314 313 313 313 313
308 308 308 308 308 308 308 308 308 308 308 308 308 308 308 308 308 309 309 309 309 310 310 310 310 311 311 311 312 311 312 317 318 313 314 314 313 314 313 314 313 314 314 314 315 315 315 315 315 315 317 317 317 317 317 317 317 317 318 318 317 316 317 317 316 316 315 315 316 316 316 316 316 316 316 316 316 316 314 313 313 313 313 313 313 313 313 313
310 310 309 309 309 309 309 309 309 309 309 309 309 309 309 309 309 309 309 310 310 310 310 310 310 311 311 312 311 311 314 318 315 313 314 313 313 313 313 314 314 314 314 315 316 316 316 315 315 316 317 317 317 317 317 317 317 318 318 317 317 317 317 317 316 315 315 315 316 316 316 316 316 316 316 316 315 315 313 312 312 312 312 312 312 313 313 313
312 312 312 311 311 311 310 310 310 310 309 309 309 309 309 309 309 309 310 310 310 310 310 311 311 311 311 311 312 313 316 317 314 314 313 312 313 314 314 314 314 315 315 316 316 316 316 315 316 316 317 317 318 317 316 317 317 318 318 317 317 317 317 317 317 316 315 315 316 316 316 315 316 316 316 315 314 314 313 312 311 311 311 311 312 312 313 313
312 312 312 312 312 312 312 312 311 311 311 311 310 310 310 310 310 310 310 310 310 310 310 311 311 311 311 310 312 316 318 317 315 313 312 313 314 314 315 315 316 316 316 316 316 317 316 315 316 316 317 317 317 317 316 317 317 318 318 317 317 316 317 316 316 316 315 315 316 316 315 315 316 316 315 314 313 313 312 311 311 311 311 312 312 312 312 313
311 311 311 311 311 311 312 312 312 312 312 312 312 311 311 311 311 310 311 311 311 311 310 311 310 310 311 311 313 315 317 318 315 313 313 314 315 315 315 315 316 317 317 317 316 316 315 316 317 316 317 317 317 317 317 317 317 317 316 317 317 317 317 317 316 316 316 316 315 315 315 316 316 316 315 313 313 313 311 311 311 312 312 311 312 312 312 312
309 309 309 309 309 310 310 310 311 311 311 312 312 312 312 312 311 311 311 311 311 311 310 310 310 311 310 311 314 315 317 317 313 313 314 314 314 314 315 315 316 317 317 317 316 316 316 316 316 316 317 317 317 317 316 317 316 316 316 316 316 317 317 317 317 317 317 316 316 315 315 316 315 316 315 312 312 312 311 311 311 312 311 311 311 311 312 312
309 308 309 308 309 309 309 309 309 310 311 311 311 311 311 312 311 311 311 311 310 310 310 310 310 311 310 311 315 316 317 317 314 314 314 314 313 314 314 315 316 317 317 317 317 316 316 316 316 316 317 317 317 317 316 316 315 316 316 316 316 317 317 317 317 317 317 316 316 315 315 315 313 315 314 312 312 311 312 312 311 312 311 311 311 311 311 311
308 309 309 309 309 309 309 309 309 309 309 310 311 311 311 311 311 311 310 310 310 310 310 310 310 310 310 311 313 315 317 316 314 314 313 313 313 313 314 315 315 316 317 318 317 317 316 316 316 316 317 317 317 317 316 315 315 316 316 316 317 318 318 318 317 317 317 316 316 315 316 316 314 314 313 312 312 312 313 312 312 312 311 311 311 311 311 311
309 309 309 309 309 309 309 309 309 309 309 309 310 310 311 311 311 310 310 310 310 309 309 309 309 310 311 313 314 313 315 315 313 313 312 312 313 314 315 315 316 316 317 317 317 316 316 316 316 316 316 316 317 317 316 315 315 316 316 316 317 319 319 318 317 316 316 315 315 315 318 319 315 313 312 311 312 312 313 313 312 312 311 311 311 311 311 311
309 309 309 309 309 309 309 309 309 309 309 309 309 309 310 311 311 310 310 309 309 309 309 309 309 310 311 313 314 315 314 314 313 313 312 313 313 314 314 315 316 316 316 316 316 315 315 315 315 316 316 316 316 316 316 316 316 316 317 318 319 320 319 317 316 316 315 315 314 315 318 320 316 313 312 311 312 313 314 314 313 312 311 311 310 310 310 310
309 309 309 309 309 309 309 309 309 309 309 309 308 308 309 310 311 310 310 309 309 309 309 309 310 312 314 315 314 314 314 314 313 312 312 313 313 315 315 315 316 315 316 315 315 315 315 315 316 316 316 316 315 315 317 318 317 317 318 320 321 321 319 317 316 316 316 315 314 315 319 319 316 314 312 312 312 313 314 314 313 312 311 311 310 310 310 309
309 309 309 309 309 309 309 309 309 309 309 308 308 308 309 310 310 310 309 308 308 308 309 311 312 313 315 316 316 315 314 313 313 312 312 313 314 315 315 315 315 315 315 315 314 314 315 315 316 316 316 315 316 317 319 320 320 319 319 321 322 322 320 318 316 316 316 315 314 316 318 318 316 314 313 312 312 313 314 314 313 312 311 310 310 310 309 309
308 308 308 308 309 309 308 309 309 309 309 308 308 308 308 310 310 309 308 308 308 309 311 313 314 314 314 315 315 316 315 314 313 313 313 314 315 315 315 315 315 315 315 314 314 314 315 315 316 316 316 316 316 318 320 321 322 321 320 321 322 322 320 319 317 316 317 316 315 316 316 318 317 314 313 312 312 313 314 314 313 312 311 310 310 309 309 309
308 308 308 308 308 308 308 308 308 308 308 308 307 308 308 308 308 308 308 308 309 310 312 313 315 315 315 314 315 315 315 315 314 314 315 315 315 315 315 315 315 315 315 315 315 315 315 316 316 317 318 317 317 319 322 323 323 321 321 321 322 322 321 320 319 317 316 316 316 317 317 318 317 314 312 313 313 313 314 314 313 311 311 310 310 309 309 309
308 308 308 308 308 308 308 308 308 308 308 307 307 307 307 308 308 308 308 310 311 313 314 314 314 314 316 316 315 315 315 315 315 314 315 315 315 315 315 315 315 315 316 316 317 316 316 317 318 320 320 319 318 318 321 322 321 320 321 321 321 321 320 320 319 316 316 317 317 318 318 318 318 316 313 312 313 313 314 314 312 311 310 310 309 309 308 308
308 308 308 308 308 307 308 308 308 308 307 307 307 307 308 311 313 313 312 311 311 311 313 317 315 313 316 317 315 315 315 315 315 315 315 316 316 315 315 315 316 315 316 319 319 316 316 320 321 321 320 319 319 319 318 320 320 319 320 321 321 321 320 320 319 316 316 318 318 319 319 319 320 318 314 313 313 313 314 313 311 311 310 309 309 308 308 308
308 308 308 308 308 308 308 308 308 308 307 306 306 308 314 316 316 317 317 315 312 310 311 315 317 315 316 317 316 315 315 315 316 317 316 316 316 316 316 315 316 317 317 319 319 316 318 321 321 320 319 319 320 320 319 319 319 319 320 320 321 322 321 320 320 316 315 318 319 319 320 318 319 320 316 312 312 313 313 312 311 311 310 309 309 308 308 307
308 308 308 308 308 308 308 308 308 307 306 306 306 309 317 319 317 317 317 317 317 315 313 312 315 317 317 317 317 315 316 317 317 317 316 316 316 316 316 316 317 318 318 318 320 319 320 320 319 319 319 320 319 319 319 319 319 320 320 321 322 322 321 321 320 315 315 318 319 319 319 319 319 320 317 312 312 313 313 313 312 311 310 309 309 308 307 307
309 308 308 308 308 308 308 308 307 307 306 306 307 307 313 318 317 317 316 316 316 316 316 314 313 315 317 317 316 315 316 317 317 317 316 316 316 316 316 316 317 318 319 319 320 322 322 320 319 319 319 319 319 318 318 318 319 320 320 321 322 322 322 323 320 317 315 316 319 319 319 318 318 320 317 313 312 312 311 311 311 310 309 309 308 308 307 306
310 309 308 308 308 309 309 308 308 308 307 306 306 306 310 315 316 316 315 316 316 315 315 315 314 315 316 316 315 315 315 316 317 318 317 316 316 316 317 316 317 318 318 318 319 321 321 320 319 319 319 319 319 319 319 319 319 322 323 322 322 322 323 323 322 319 318 318 318 318 320 321 319 320 318 312 310 310 309 309 309 309 308 308 307 307 307 306
312 309 308 308 309 310 311 311 310 309 308 307 306 306 310 314 315 315 315 316 317 317 318 318 318 317 317 316 315 315 315 315 316 318 317 316 316 317 317 317 318 318 318 319 319 319 319 319 320 320 320 320 320 319 321 322 321 322 324 323 322 322 322 324 324 323 323 323 320 318 324 329 323 321 319 312 310 310 308 308 308 308 307 307 307 306 306 306
315 312 309 308 309 310 313 314 312 308 309 308 306 308 311 314 316 314 315 317 317 318 320 320 320 318 318 318 316 316 316 316 316 318 318 317 317 317 317 318 317 318 319 319 319 320 319 318 320 321 321 322 322 321 322 324 321 322 325 326 324 322 323 324 323 324 326 326 321 318 326 329 323 321 320 313 311 311 308 307 307 307 306 306 306 306 306 305
319 315 310 309 309 310 314 315 312 310 311 310 307 309 312 315 314 313 316 318 317 320 321 319 319 318 318 318 317 316 317 317 318 318 318 317 317 317 317 317 317 317 317 319 322 321 319 319 322 322 322 324 324 321 322 323 323 324 325 326 325 322 323 324 323 325 325 324 321 319 322 324 322 322 319 313 312 311 309 308 308 307 306 305 305 305 305 305
321 317 312 310 310 311 313 315 314 312 312 313 311 309 313 315 314 314 317 317 318 321 321 318 317 317 318 318 317 317 317 318 319 317 316 317 317 316 316 317 317 317 317 319 323 322 319 320 323 323 323 324 322 322 324 323 323 324 322 322 323 322 322 323 323 325 324 323 323 322 321 324 325 322 318 314 315 314 311 309 308 307 306 305 306 305 304 304
322 319 314 311 311 312 313 316 316 314 312 314 313 310 314 316 314 317 318 317 320 321 319 317 316 317 318 318 317 317 316 316 317 316 315 316 316 315 316 317 317 318 318 318 321 322 320 317 319 322 323 322 320 321 325 326 323 320 320 322 322 321 321 321 323 323 322 323 323 323 321 324 327 324 319 316 317 317 314 310 308 307 306 306 305 305 304 304
323 321 316 313 312 312 314 316 317 315 313 315 313 312 315 317 315 318 319 319 320 321 316 315 317 318 318 318 318 318 315 314 314 314 315 315 315 315 315 316 316 318 320 319 320 319 316 314 315 319 320 318 317 316 317 321 321 318 319 321 320 320 320 320 321 320 322 323 322 322 322 323 326 327 321 318 318 318 315 312 309 307 306 306 305 304 304 303
322 321 318 314 313 313 314 316 316 315 315 315 315 315 317 318 317 318 319 317 317 319 315 314 317 318 318 319 319 317 315 314 313 314 315 314 314 315 316 318 317 319 321 321 321 319 316 317 317 317 316 315 317 317 314 315 317 318 320 321 321 321 319 319 320 319 322 324 322 320 321 322 325 326 320 317 318 317 315 312 309 307 306 305 305 304 303 303
322 321 318 316 314 313 314 315 315 315 316 316 316 316 317 319 320 320 318 313 313 318 317 317 318 318 318 320 320 318 316 315 314 315 315 314 315 315 316 319 319 320 323 321 321 322 320 319 318 317 315 315 320 321 316 314 317 319 321 322 323 323 321 322 322 320 322 323 318 317 321 323 323 322 320 318 316 315 313 311 309 307 306 305 304 303 303 303
322 321 319 317 316 314 314 315 315 315 316 316 317 318 320 320 320 320 317 313 315 319 319 318 318 318 318 320 320 318 317 316 315 315 316 316 316 316 316 318 318 321 324 321 321 324 324 322 319 318 316 316 319 320 319 318 317 319 321 322 324 324 324 325 324 323 324 322 317 316 319 322 323 321 319 316 312 311 311 311 309 307 306 305 304 303 303 303
322 320 319 317 316 316 315 316 316 316 316 317 317 319 321 321 319 319 318 316 318 320 319 319 319 319 319 320 320 318 318 318 315 315 317 317 318 318 317 317 317 320 322 321 322 324 326 326 322 319 317 316 317 318 320 319 316 317 319 320 323 324 326 327 326 326 326 321 316 316 320 324 325 320 313 310 308 309 310 310 308 307 306 305 304 303 303 303
322 321 319 317 316 316 316 316 316 316 316 317 318 320 321 321 320 319 318 318 319 319 318 319 320 320 320 321 319 317 318 319 316 316 318 318 318 318 318 317 317 319 320 322 324 323 324 327 321 317 317 316 317 318 318 319 318 317 318 320 322 322 324 326 323 321 321 320 318 317 321 323 319 314 309 307 307 307 309 309 307 307 306 304 304 303 303 303
322 321 319 317 317 317 317 317 316 316 316 317 319 321 321 321 320 319 318 318 319 319 319 320 321 321 322 322 319 318 319 319 317 317 318 318 318 319 319 319 317 318 320 321 324 325 325 325 319 316 316 314 314 317 317 319 320 319 319 320 321 320 320 322 321 317 318 322 321 319 321 320 316 314 310 308 308 307 308 308 307 306 305 304 303 303 303 303
321 320 318 318 319 318 317 317 317 316 316 318 320 321 320 320 320 320 320 318 318 319 320 321 321 322 323 322 320 318 319 319 317 318 318 318 319 319 319 320 318 318 319 320 323 325 325 324 318 316 318 313 310 313 315 314 317 320 321 320 320 320 319 319 322 321 321 323 322 320 321 320 320 319 312 308 310 309 308 308 306 305 305 304 303 303 303 302
321 319 318 318 319 319 317 318 317 315 315 318 319 320 320 320 320 319 320 319 318 319 319 320 321 322 323 323 321 318 319 320 317 317 319 319 319 320 318 320 320 318 318 319 323 324 324 324 318 315 316 313 309 313 317 315 313 316 317 317 318 322 322 320 321 322 323 323 322 322 322 320 320 320 315 311 311 309 308 308 307 305 305 304 303 303 303 302
321 319 318 318 319 318 317 318 317 315 316 317 317 318 320 320 320 320 320 320 319 319 319 319 320 321 322 322 322 319 318 320 318 318 320 320 320 320 318 319 321 319 318 319 321 322 322 324 321 314 313 314 312 315 319 318 314 313 314 316 318 319 320 321 321 321 323 323 322 323 324 323 320 318 319 317 311 308 308 307 307 306 305 305 304 303 303 302
320 318 318 318 319 318 318 318 317 316 316 316 315 316 319 319 320 320 319 320 321 320 320 321 321 321 321 321 322 320 318 320 319 318 320 320 320 321 318 319 321 320 318 318 320 321 320 322 322 315 312 314 315 316 317 318 316 314 315 317 318 317 316 319 320 320 321 322 323 322 323 325 320 314 316 316 311 309 308 307 307 306 306 305 305 304 303 302
319 318 319 319 318 319 318 317 316 316 315 315 314 315 317 319 320 320 319 319 320 319 319 322 322 322 322 321 322 321 319 320 320 319 320 319 320 322 320 318 320 320 319 319 320 321 320 320 321 317 314 315 317 316 315 316 317 316 315 316 317 317 317 319 321 320 319 320 322 322 323 325 318 311 313 315 313 310 308 307 307 306 306 306 305 304 303 303
318 318 319 319 319 319 318 316 316 316 314 313 314 315 316 318 319 320 319 318 319 319 318 319 321 323 324 323 322 322 320 320 320 320 320 319 320 322 319 317 318 318 318 319 319 319 319 320 320 319 316 315 315 314 312 313 316 316 315 316 318 317 317 320 321 321 320 320 321 321 323 322 315 311 311 311 311 310 309 307 307 306 306 306 305 305 304 303
318 318 318 319 319 318 318 317 317 316 313 313 313 314 316 317 318 320 320 318 319 319 319 319 320 321 323 323 323 323 320 320 321 320 320 321 320 317 314 315 318 317 317 319 319 317 318 319 319 319 318 315 313 312 311 311 313 315 316 317 317 317 316 319 320 319 320 321 321 320 321 319 313 310 309 307 307 309 309 309 308 307 307 306 306 305 304 304
317 317 317 318 318 318 318 317 316 314 312 312 314 315 316 317 317 319 319 318 318 319 319 319 320 320 321 321 322 322 321 321 322 321 321 323 320 311 309 312 315 316 317 318 318 316 318 320 319 320 320 319 316 315 315 314 313 314 316 315 316 317 318 318 318 317 318 320 321 320 321 319 314 310 308 307 308 308 308 309 309 308 307 306 306 306 305 304
316 316 316 316 317 318 318 318 315 313 311 312 313 314 315 317 317 317 318 318 318 318 318 319 319 319 320 320 320 323 322 321 322 322 322 323 317 309 308 310 312 314 314 313 314 316 320 321 319 320 322 322 321 320 319 316 314 313 315 315 315 317 318 318 318 318 318 319 320 319 319 317 313 312 310 308 308 308 307 309 309 308 307 307 306 306 305 305
315 315 314 314 315 314 315 316 315 313 311 311 312 314 315 316 316 315 317 318 318 318 317 317 318 318 320 320 319 320 320 319 320 321 322 322 316 309 307 308 309 311 310 310 312 315 319 320 318 319 321 321 322 321 319 317 316 315 315 315 315 316 317 318 318 317 319 321 320 318 319 317 314 313 312 310 310 308 307 307 307 308 307 307 306 306 305 305
315 315 314 314 314 312 311 312 314 314 313 312 313 314 315 316 315 314 316 317 317 317 316 315 316 318 319 319 318 319 319 318 318 318 320 320 313 308 307 308 308 309 309 309 311 314 318 318 317 319 320 320 320 318 316 317 317 316 316 315 314 315 316 318 317 317 319 321 320 318 320 321 317 314 313 313 312 310 306 305 306 307 307 306 306 306 306 305
315 315 313 314 315 314 312 312 313 315 314 313 314 314 314 315 315 315 315 315 316 317 316 315 315 317 318 317 318 319 319 318 316 316 318 317 312 311 310 309 308 308 309 310 310 313 317 316 316 318 318 317 315 313 314 316 316 315 316 316 315 314 315 317 316 317 318 319 319 320 322 321 317 314 314 313 311 309 307 305 306 307 306 306 306 306 306 305
312 312 312 312 314 313 313 313 313 315 315 314 314 315 315 315 315 315 313 313 315 315 316 317 316 315 317 317 318 318 318 318 317 316 315 315 313 313 313 312 310 307 309 312 310 311 315 316 316 317 317 316 314 311 313 314 315 316 316 316 316 314 314 315 315 316 317 317 318 319 320 319 317 314 313 312 309 308 307 307 307 307 307 306 306 305 305 305
311 311 311 311 311 311 311 312 313 314 315 314 314 314 314 314 315 314 312 312 314 314 314 317 316 315 316 317 317 318 317 317 318 317 314 313 313 313 313 315 312 308 308 312 311 310 312 315 316 315 316 316 312 310 311 313 314 316 315 315 315 314 314 314 314 314 315 316 316 315 316 318 315 312 311 310 309 308 308 307 307 307 307 307 306 306 306 305
311 311 311 311 311 310 311 312 313 314 314 314 314 314 314 315 314 314 313 312 313 314 313 315 316 315 315 315 316 317 316 315 316 315 313 313 314 313 313 313 312 311 310 311 312 311 311 313 313 313 315 316 311 309 311 312 313 314 314 313 313 313 314 314 313 314 314 314 315 314 314 316 314 310 309 309 308 308 308 308 307 307 307 307 307 307 306 306
310 310 310 310 311 311 311 312 313 313 313 312 313 313 313 314 314 314 314 312 311 312 312 313 314 314 314 314 315 316 315 314 313 312 311 311 312 311 311 310 311 312 311 310 311 311 311 312 312 313 316 315 309 308 311 312 314 315 315 314 313 312 313 313 313 314 313 313 315 315 315 316 315 313 313 312 311 309 308 309 308 307 307 307 307 307 307 306
Wind_Speed
12 12 12 12 11 11 11 11 11 10 10 10 10 10 10 10 9 9 8 8 7 6 6 4 3 1 0 1 3 3 5 5 6 6 3 1 2 6 8 9 9 9 9 10 9 10 9 6 5 6 5 3 4 5 5 7 8 5 1 1 2 2 3 3 4 4 4 5 5 6 4 3 2 3 2 3 4 5 5 5 8 3 2 1 1 3 4 3
11 11 11 11 11 11 11 10 10 10 10 10 10 9 9 9 9 8 8 7 6 5 5 4 2 1 1 2 4 4 4 3 4 4 2 6 8 10 10 8 8 9 10 11 10 7 6 4 5 5 3 1 4 4 3 6 7 3 1 2 2 3 4 5 7 7 3 5 5 6 5 2 2 3 4 4 4 5 5 7 10 7 6 2 2 2 1 1
11 11 11 10 10 10 10 10 10 10 10 9 9 9 9 8 8 8 7 7 6 5 4 3 2 2 2 3 4 4 3 3 3 2 6 10 9 9 7 5 5 8 10 11 11 7 4 5 5 5 5 0 4 4 2 4 5 3 3 2 3 3 5 7 9 10 8 6 4 5 4 3 2 2 3 4 7 4 2 6 8 10 8 1 2 1 1 0
11 11 10 10 10 10 10 10 10 9 9 9 9 8 8 8 7 7 6 6 5 5 4 3 2 2 2 4 4 5 5 1 3 3 7 8 6 5 3 2 5 8 11 11 10 7 5 4 5 5 6 1 3 2 2 5 5 4 3 2 3 3 4 6 8 9 7 6 5 4 3 4 0 1 3 4 6 2 6 7 5 8 6 1 2 2 2 0
10 10 10 10 10 9 9 9 9 9 8 8 8 8 7 7 7 6 6 6 5 4 4 3 3 2 3 4 5 5 6 1 5 6 6 4 3 2 2 5 7 9 11 10 8 6 5 4 4 5 6 1 3 1 3 5 5 3 3 6 6 5 3 6 6 5 4 4 3 2 2 3 2 4 6 4 3 1 4 3 2 3 5 4 2 2 2 1
10 10 10 9 9 9 9 9 8 8 8 7 7 7 7 7 6 6 6 6 5 5 4 4 3 3 4 4 5 6 5 1 4 5 2 1 4 5 5 6 8 9 9 8 7 7 5 4 5 4 5 3 3 4 3 4 5 2 2 6 7 5 3 5 4 2 2 1 1 2 2 3 5 7 5 2 1 3 3 1 1 2 5 4 3 4 1 2
11 10 10 9 9 9 8 8 8 8 7 7 7 7 6 6 6 6 6 6 5 5 4 4 4 4 4 5 5 5 4 2 4 4 3 4 5 5 6 6 7 7 6 5 5 5 4 4 6 5 5 3 3 4 3 3 3 2 1 4 5 3 2 3 3 2 2 2 3 3 3 4 6 5 2 4 4 5 4 2 1 3 5 5 4 2 2 3
11 11 10 10 9 9 8 8 8 7 7 7 7 7 7 7 7 7 6 6 5 5 4 4 5 4 5 4 4 5 5 5 5 3 3 3 3 4 5 6 6 6 6 4 2 3 3 4 6 6 5 3 4 2 3 3 3 1 2 3 2 2 2 2 3 4 5 5 6 5 5 8 8 6 2 6 8 6 4 2 2 5 6 4 2 1 3 3
12 11 11 10 10 9 9 8 8 8 8 8 8 8 8 7 7 7 7 6 6 5 5 5 5 5 5 4 2 5 4 6 5 3 2 1 1 3 4 5 5 5 6 5 4 3 3 4 4 4 5 5 5 3 4 3 1 3 4 2 3 4 5 5 6 7 7 7 6 5 7 11 10 7 2 7 9 6 4 4 4 5 3 2 1 2 3 4
12 12 11 10 10 9 9 8 8 8 8 8 8 8 8 8 8 8 8 7 7 7 6 6 6 5 5 3 2 4 4 6 4 3 3 2 2 4 5 5 5 3 3 3 3 3 3 3 2 4 5 4 2 2 3 2 1 3 4 5 8 10 10 8 8 9 7 7 8 6 7 7 8 6 2 7 9 6 6 5 5 4 1 1 1 2 3 3
13 12 11 11 10 9 9 9 8 8 8 8 8 8 9 9 9 9 9 8 8 7 7 7 6 6 5 3 4 4 4 5 4 3 4 3 4 6 6 5 5 3 1 1 1 1 1 1 2 4 4 2 1 1 2 2 1 2 4 6 10 13 13 12 10 9 6 4 8 8 6 3 7 4 3 10 10 8 8 6 5 4 2 2 2 2 3 3
15 14 13 12 11 10 10 10 9 9 10 9 9 9 10 10 9 9 9 9 8 8 7 7 6 6 6 6 9 9 6 6 6 5 5 6 8 8 7 6 5 4 1 0 2 2 1 2 1 3 3 3 3 1 2 1 1 3 3 4 7 8 10 14 12 9 7 3 5 6 4 4 6 3 7 12 12 11 9 6 5 3 2 2 2 3 3 3
17 16 14 14 13 12 11 11 11 11 11 11 11 11 11 10 10 10 10 9 9 8 8 8 7 7 6 6 10 11 10 11 10 9 9 9 9 8 8 8 6 5 3 4 5 4 3 3 1 2 3 4 4 1 1 1 1 4 4 3 4 5 4 8 10 9 7 4 6 5 1 4 6 8 10 12 13 12 10 7 6 4 3 3 2 3 4 3
19 18 17 16 15 14 13 12 12 12 12 12 12 12 12 11 11 11 10 10 10 9 8 8 7 7 7 7 9 10 12 12 12 12 11 9 9 9 9 8 7 6 6 6 7 6 4 3 2 2 4 4 2 1 3 3 3 3 3 2 2 2 2 2 8 10 6 4 9 6 2 3 4 9 11 12 13 13 11 9 8 6 4 3 3 3 4 3
21 20 19 18 17 16 15 14 14 13 13 13 12 12 12 12 12 11 11 10 10 9 9 8 7 6 7 8 9 11 13 13 14 14 12 11 10 9 9 9 8 7 7 7 6 5 4 3 3 2 1 1 1 1 3 3 4 2 2 2 1 2 2 2 7 10 4 3 10 6 2 2 4 8 11 13 13 12 11 11 9 8 7 4 4 4 3 2
23 22 21 19 19 18 17 16 16 15 14 13 12 13 13 13 12 12 11 11 10 9 8 6 6 6 5 7 9 10 12 14 15 15 13 11 8 8 9 7 6 6 5 4 3 3 4 3 3 3 2 2 2 3 3 3 3 3 3 3 3 3 3 2 4 7 3 3 8 6 3 1 3 10 13 14 15 13 12 12 11 9 8 7 6 6 4 2
24 23 22 21 20 19 18 18 17 16 15 13 13 13 13 13 12 12 11 10 10 8 7 5 5 6 7 8 9 10 12 14 13 11 10 10 9 10 8 4 3 4 2 3 3 3 4 3 2 3 3 3 3 3 2 3 4 3 4 3 5 5 4 2 1 5 5 3 5 7 6 4 3 12 15 16 17 15 14 13 13 11 9 9 8 7 6 5
24 23 22 21 21 20 19 19 18 17 15 14 13 13 13 12 12 11 11 10 9 6 6 7 4 2 8 12 11 11 13 13 11 10 9 9 10 9 5 3 3 3 4 3 4 6 4 4 3 2 2 3 4 4 3 4 4 3 1 2 4 3 4 3 0 5 8 4 4 5 6 7 4 10 15 17 16 15 15 14 14 12 11 10 9 8 8 8
23 22 22 21 21 20 20 19 18 17 16 14 13 12 11 10 9 10 11 10 10 5 3 9 13 4 2 8 14 13 11 9 8 10 10 11 10 9 7 5 5 6 6 4 4 8 6 3 3 1 3 5 5 6 6 6 5 4 2 1 3 3 3 4 1 5 5 2 4 6 6 8 6 6 12 16 17 15 13 13 14 12 11 11 9 10 9 9
21 21 21 21 21 20 19 19 18 17 16 15 14 11 8 6 5 6 10 15 17 16 7 6 14 12 3 3 11 12 10 7 7 9 11 11 10 10 9 7 7 6 4 4 4 6 6 3 3 4 5 7 7 9 9 8 8 4 2 2 4 3 5 6 2 3 2 0 5 6 6 8 8 5 11 17 16 14 13 13 14 13 12 12 11 10 10 9
20 20 20 20 20 20 19 18 17 17 16 15 16 12 6 5 4 2 7 14 19 23 20 12 10 14 10 6 8 9 8 7 8 10 10 11 11 9 9 9 6 4 6 7 4 2 3 4 6 7 8 8 4 4 7 7 7 4 2 3 5 3 5 6 2 3 4 1 3 5 7 9 9 8 8 18 14 12 16 15 15 15 13 12 12 11 10 10
20 20 20 19 20 19 18 17 16 16 16 16 18 16 10 8 8 4 2 7 12 16 22 22 17 16 14 11 10 9 8 7 8 12 12 14 14 9 11 11 5 3 7 7 3 2 3 5 8 10 10 7 1 3 1 2 3 3 2 2 4 3 5 6 2 4 4 1 3 4 7 8 9 9 7 16 13 10 13 12 13 16 14 12 12 11 11 9
18 19 19 19 18 17 17 16 16 16 17 18 19 19 14 9 8 7 4 6 10 13 19 23 24 23 19 15 15 14 12 9 9 14 16 16 16 13 12 10 6 5 6 6 5 4 5 5 9 13 11 5 3 2 1 2 2 2 3 3 4 3 3 4 1 3 4 3 3 5 7 7 9 10 4 9 9 7 8 8 10 13 12 12 13 12 11 10
16 18 19 19 18 17 15 13 15 16 17 19 19 20 17 10 7 6 5 5 8 11 19 22 24 27 25 21 21 19 17 13 11 14 19 20 17 13 11 10 8 6 6 8 8 8 8 4 5 10 9 5 4 3 3 3 3 4 6 5 5 4 5 5 2 1 3 3 4 4 6 6 9 10 5 3 5 6 7 7 8 10 11 12 14 13 10 11
15 17 18 18 18 16 12 12 15 15 15 18 19 20 18 10 6 3 2 5 6 7 13 17 19 23 25 24 21 18 15 16 16 15 19 23 19 11 8 11 9 5 7 10 9 9 10 7 5 6 5 5 5 5 5 6 3 4 5 7 8 8 6 4 5 3 2 3 3 2 3 5 4 6 7 4 4 5 7 9 10 11 12 13 15 15 14 13
14 17 18 20 19 15 13 13 15 14 14 17 18 19 17 11 6 3 2 2 5 4 6 12 14 14 18 21 20 15 7 11 16 15 17 22 21 13 6 8 8 5 6 7 6 4 3 3 5 5 5 5 5 5 5 6 3 3 3 2 3 4 2 3 4 2 1 4 1 3 2 4 4 2 5 6 5 5 7 8 11 14 14 14 15 16 17 16
15 17 19 20 20 19 17 14 14 13 12 13 14 17 16 12 7 4 4 2 6 6 8 9 11 10 13 19 25 16 2 7 13 13 20 23 22 16 8 6 6 4 2 1 3 1 3 5 3 3 6 5 5 5 4 5 4 3 3 4 4 2 1 1 3 3 3 3 2 3 3 4 7 4 5 7 6 6 6 7 10 15 16 15 16 16 18 18
16 16 19 21 21 22 20 13 11 13 11 8 11 17 16 14 10 6 4 2 2 7 7 7 9 10 12 18 26 16 6 13 11 9 22 25 20 14 8 7 6 5 5 4 4 1 3 6 6 6 6 5 4 2 3 7 4 1 0 3 5 3 1 1 3 4 3 3 3 4 4 3 7 2 5 6 5 6 9 9 9 14 17 17 17 16 16 18
18 16 19 21 21 22 21 14 12 13 11 8 12 18 17 16 10 4 1 2 3 5 4 8 9 11 15 17 21 14 10 7 2 7 20 20 17 9 4 8 6 4 9 10 8 1 2 2 3 6 5 4 2 4 2 4 4 3 3 5 5 2 2 1 3 2 2 4 5 6 5 3 5 2 4 4 4 7 8 8 9 15 18 18 18 18 17 18
22 19 19 21 23 25 22 18 16 14 12 12 15 20 20 15 7 3 2 3 2 2 5 9 9 13 17 13 10 10 7 2 5 11 13 11 13 7 2 5 4 3 3 7 7 2 4 2 2 1 2 3 6 5 7 4 6 7 4 5 3 0 1 1 2 1 1 5 6 9 9 6 4 3 5 4 4 6 7 6 9 14 18 19 19 20 19 19
26 23 21 23 27 27 26 25 22 18 17 15 18 24 20 8 1 4 6 1 2 2 7 5 6 13 17 11 8 8 6 4 9 12 7 5 8 4 2 4 2 1 1 3 4 1 3 2 1 1 5 7 7 4 6 5 4 6 3 3 2 1 2 2 1 1 2 5 4 8 10 10 7 4 3 3 3 4 9 9 10 14 19 21 21 21 21 22
30 27 24 25 27 27 29 29 25 22 19 17 22 25 15 4 1 7 5 3 1 4 7 7 7 10 13 11 9 9 7 6 9 9 5 5 6 5 6 5 5 3 2 4 3 2 4 4 4 4 5 8 6 3 3 4 1 4 4 5 3 0 1 1 2 2 4 6 3 2 4 7 8 6 4 4 1 4 8 13 16 19 22 23 23 22 23 25
34 31 28 28 28 29 29 26 24 25 20 18 23 18 6 4 7 10 9 5 1 2 5 8 9 11 13 10 6 8 6 4 9 8 5 6 5 6 7 6 7 4 2 5 5 3 2 3 6 4 2 9 10 5 3 1 3 6 5 6 5 3 2 3 4 3 4 4 3 3 1 2 3 5 5 2 3 5 5 16 23 24 26 25 25 25 24 26
36 34 32 32 32 31 28 25 26 27 24 22 20 10 3 7 10 12 14 10 2 2 4 8 10 11 11 8 6 9 5 2 9 8 5 6 5 5 7 8 11 7 1 3 4 6 3 4 6 6 3 11 13 8 6 5 6 7 6 5 5 4 3 3 3 3 3 1 3 3 1 3 2 2 1 4 5 7 8 18 23 23 25 25 25 25 26 27
35 37 37 35 36 35 31 29 28 25 27 26 14 7 9 10 10 11 12 9 3 3 4 8 10 9 8 5 5 8 4 2 8 7 5 8 6 7 8 9 12 9 4 4 2 5 7 5 3 4 5 12 11 7 6 7 3 5 4 4 5 3 3 2 2 2 1 1 2 2 2 4 3 1 1 5 5 5 8 18 23 22 24 26 25 27 27 28
38 41 41 38 40 40 36 36 32 27 29 24 10 8 13 11 8 6 7 7 6 5 8 8 6 6 7 4 4 6 2 3 7 6 4 6 5 7 8 7 13 13 8 7 3 3 6 3 1 2 2 5 3 2 4 4 2 3 4 5 4 2 2 1 1 1 2 3 3 4 3 4 0 1 2 5 5 2 3 13 20 22 25 26 26 28 30 30
42 44 45 46 44 41 40 41 36 32 32 22 9 9 10 9 7 4 5 9 10 11 10 6 5 6 7 5 4 8 4 3 8 6 3 5 4 9 10 7 14 17 14 10 3 1 4 1 2 0 1 1 3 4 2 1 1 4 4 4 2 3 3 1 1 2 1 5 3 5 6 3 2 3 2 4 5 4 4 8 15 20 24 25 25 29 31 31
46 45 47 51 49 43 43 43 39 38 30 14 9 13 9 7 9 6 5 7 10 13 9 7 7 7 8 7 5 10 8 5 8 6 5 5 3 9 12 8 12 19 21 15 4 2 2 1 3 2 1 0 2 2 1 3 1 3 2 2 3 1 1 3 2 2 3 5 4 4 6 6 6 5 4 6 9 9 8 8 11 16 21 24 25 29 30 31
45 38 38 50 52 46 44 46 46 41 23 8 8 12 8 7 10 7 3 4 7 12 10 9 8 6 8 8 6 10 11 8 9 7 5 6 4 9 15 10 10 17 22 18 7 1 2 2 3 3 2 2 2 1 4 3 2 2 4 4 1 2 3 3 3 2 3 4 5 3 4 4 5 5 8 12 12 11 12 10 10 15 22 25 27 30 31 32
42 26 24 43 50 47 47 48 44 31 14 8 9 8 6 7 10 8 5 4 3 5 7 9 10 8 8 9 7 9 10 8 10 8 6 7 4 5 12 12 7 10 17 16 8 2 2 2 3 2 3 2 2 4 8 9 7 4 1 2 2 2 1 1 2 2 2 3 4 4 4 4 2 0 5 11 11 12 15 13 11 16 23 25 27 31 33 33
38 15 16 34 41 47 50 40 27 15 7 9 9 8 7 6 7 9 9 6 1 1 1 3 6 7 7 8 8 8 8 8 9 7 5 8 6 2 7 12 10 9 10 8 6 4 2 2 4 2 1 3 4 4 5 5 6 6 6 6 7 5 3 2 4 3 2 3 3 3 6 5 2 3 3 3 7 11 15 14 13 18 23 24 26 30 33 34
29 11 15 28 34 48 48 23 10 11 8 12 13 9 6 4 5 9 11 9 4 0 0 1 1 3 3 5 7 7 7 6 8 8 6 7 8 4 4 9 14 17 11 5 6 6 4 2 3 2 3 3 2 1 3 2 2 1 3 5 5 6 6 6 6 3 1 2 1 0 4 4 2 3 5 4 4 8 15 17 14 18 23 23 25 28 31 33
21 13 15 22 31 47 40 10 6 11 6 10 13 9 8 6 5 7 9 11 7 2 2 1 0 1 0 1 3 7 8 6 8 9 7 7 5 0 0 6 15 17 10 2 3 4 4 2 3 2 0 1 1 2 3 3 2 1 4 4 6 7 8 6 4 2 2 3 2 1 5 5 2 3 4 5 7 10 14 18 17 18 20 22 24 26 29 30
17 14 15 24 36 45 30 6 6 11 7 9 10 11 12 9 8 9 9 11 10 5 5 4 1 1 1 3 2 3 6 5 7 7 5 5 3 3 2 5 9 9 5 1 4 8 6 2 3 3 2 1 1 0 1 2 1 4 4 5 7 7 7 4 1 0 4 6 7 5 6 4 1 2 3 3 5 8 10 15 19 20 21 23 23 24 27 28
10 9 14 29 44 43 27 16 15 10 9 12 11 14 14 7 10 15 11 10 12 8 5 4 2 2 3 3 3 1 2 1 2 2 1 1 1 3 2 2 3 3 3 2 5 10 7 3 5 7 7 8 5 3 3 3 3 3 4 8 10 11 11 6 2 5 9 6 8 8 7 2 0 2 2 2 4 6 8 12 17 20 22 23 24 24 25 27
6 4 7 16 27 26 17 20 24 13 10 13 10 12 16 10 6 12 12 11 13 10 4 1 2 4 3 3 3 4 4 0 2 1 1 2 1 2 2 1 1 2 4 4 6 7 3 2 8 11 12 11 7 4 2 2 5 6 9 13 14 15 14 8 5 9 7 4 6 10 6 4 3 5 6 5 6 6 6 10 15 18 20 22 23 24 25 26
9 4 6 8 10 10 7 7 14 13 14 17 10 8 18 16 4 6 12 11 12 12 4 3 3 8 8 9 9 8 7 3 1 2 3 3 2 2 2 1 1 2 3 5 7 6 3 4 10 13 15 10 3 3 0 1 5 9 11 15 15 14 15 13 12 12 7 5 8 8 8 7 7 8 8 7 7 6 7 12 16 19 21 22 22 22 23 24
13 5 12 17 10 5 7 9 11 14 16 17 11 6 14 18 10 9 10 6 8 14 8 2 7 14 14 14 11 7 6 3 3 5 4 3 3 2 2 1 0 2 3 3 5 5 3 6 8 10 13 7 3 2 2 1 2 3 5 11 14 16 17 18 20 16 10 8 8 5 10 9 7 7 8 7 9 9 11 16 18 19 19 18 18 19 21 23
13 5 9 18 10 4 14 17 11 12 15 14 11 9 13 19 18 12 7 4 6 13 13 10 13 16 14 12 9 8 8 7 9 9 5 4 4 4 2 1 2 3 4 3 2 2 2 4 4 4 8 5 1 3 2 1 1 3 4 7 9 14 18 19 20 14 8 8 4 3 5 6 2 5 6 8 11 11 12 15 15 15 15 15 17 19 21 22
15 10 8 11 6 3 12 14 8 8 12 12 12 11 12 18 20 13 8 10 11 10 13 18 19 16 14 11 10 12 14 14 13 10 8 6 4 4 4 3 3 3 3 3 1 2 3 3 3 4 5 5 1 2 2 1 1 3 7 7 5 7 11 14 15 9 7 11 6 4 2 5 0 3 5 8 10 10 12 12 11 11 14 16 17 19 19 20
18 16 12 9 4 4 8 9 8 7 7 8 11 11 12 16 20 15 8 12 16 11 14 23 20 10 9 11 13 16 17 14 10 8 13 13 9 8 7 5 8 6 4 4 3 4 5 3 2 4 6 6 2 1 1 2 2 5 12 12 7 5 7 9 9 7 9 11 5 3 4 5 1 5 8 7 8 10 9 10 11 12 15 16 16 17 17 17
21 17 14 10 6 8 8 6 8 9 7 8 12 12 13 15 15 12 7 10 17 17 18 21 13 7 6 12 18 22 19 13 8 8 14 15 10 10 9 9 11 10 7 6 4 3 6 5 3 5 7 4 1 3 3 4 1 9 14 11 11 9 8 6 4 5 8 6 4 5 6 4 4 4 4 3 5 7 10 13 15 17 17 16 16 15 16 16
Wind_Direction
185 185 186 184 184 185 185 186 187 187 188 190 190 189 187 186 186 184 184 180 177 174 170 173 177 185 229 324 337 350 351 359 16 8 335 268 131 128 111 101 84 63 50 43 44 30 15 8 346 340 352 6 40 19 10 15 356 343 326 272 317 73 67 346 34 72 163 132 114 109 46 352 105 114 82 314 262 224 229 127 130 162 84 71 31 341 331 1
181 182 183 182 184 185 184 185 186 187 189 192 191 190 187 184 181 178 179 177 177 177 178 185 191 219 287 317 332 343 348 43 62 13 53 115 119 122 113 99 77 51 37 33 40 31 7 5 350 343 324 305 60 29 32 8 342 355 335 319 32 53 51 29 53 51 44 86 98 102 73 360 19 31 34 345 272 231 227 132 128 114 81 34 343 346 318 74
179 180 180 180 183 183 183 184 187 187 188 189 189 188 183 179 178 177 178 178 182 185 189 196 209 246 289 315 329 329 333 99 123 72 100 114 121 125 116 92 50 24 16 17 28 38 34 20 1 348 319 267 60 8 37 3 343 26 348 360 62 67 75 57 64 61 41 52 60 80 74 325 326 353 8 345 307 292 54 91 114 104 89 15 336 325 234 120
178 178 178 179 179 180 182 184 185 186 187 187 188 187 183 181 180 181 183 186 191 194 201 210 228 256 294 316 325 314 311 310 168 149 113 111 109 113 102 27 351 348 351 360 18 28 37 19 357 344 307 223 94 351 34 23 346 345 346 68 62 8 78 69 69 75 57 47 33 32 8 309 293 4 315 307 307 353 67 59 93 103 111 183 314 278 229 311
179 179 178 179 179 180 183 184 185 186 187 188 190 190 188 187 185 188 192 195 200 205 214 222 237 266 300 313 319 311 314 318 158 146 121 102 60 16 321 319 319 326 338 355 17 13 27 15 323 313 300 263 115 74 56 28 339 325 25 74 62 10 57 87 76 79 60 43 34 333 312 337 10 302 282 261 283 110 93 46 96 151 185 208 264 243 227 298
184 183 182 184 182 183 184 185 187 187 190 192 195 197 196 196 196 199 199 205 208 213 221 231 248 276 298 309 314 310 314 319 162 163 151 340 335 333 320 315 318 325 340 7 24 6 16 350 310 325 318 310 48 58 77 18 345 331 63 69 63 28 37 102 112 119 86 43 279 281 295 327 321 296 270 208 177 171 177 314 339 218 194 184 203 204 246 319
191 189 190 191 189 191 190 190 191 191 194 196 201 203 204 203 204 207 207 213 214 221 232 245 264 277 294 302 309 305 292 239 186 207 256 308 323 334 329 334 337 339 355 23 24 359 360 328 326 353 320 302 36 46 64 348 306 271 87 81 70 18 358 107 143 199 186 215 240 276 295 282 284 282 240 144 153 195 218 289 326 142 140 142 160 178 306 320
196 195 197 198 198 199 198 201 201 202 205 206 211 211 214 212 215 219 217 224 225 235 246 254 270 277 290 299 309 305 268 210 188 235 271 294 326 344 335 349 356 356 16 31 39 4 350 339 344 351 331 6 19 6 39 344 267 307 29 67 47 319 274 201 188 219 218 226 246 255 259 259 252 251 231 151 166 209 221 217 162 125 116 113 103 24 309 309
202 200 201 202 204 204 204 208 208 213 215 216 221 222 228 226 227 232 231 237 238 246 252 258 270 272 282 289 295 296 247 199 198 241 248 257 319 343 336 348 356 13 27 19 50 41 4 9 16 7 343 351 352 357 39 3 334 19 7 358 314 267 256 236 216 227 225 225 228 218 243 257 239 232 237 160 181 210 188 178 148 121 112 91 12 308 303 308
210 207 208 208 210 213 213 216 216 221 224 226 230 231 236 236 238 242 241 245 245 249 253 257 262 262 274 268 250 265 210 195 208 213 212 232 288 318 325 331 339 6 36 14 55 59 10 357 355 340 316 303 328 13 17 342 46 2 333 309 284 267 262 242 229 237 227 222 212 203 252 251 199 207 210 169 194 197 166 160 135 130 160 236 275 273 279 290
218 217 217 218 219 222 225 228 228 230 233 234 237 238 240 243 243 246 247 248 247 250 251 254 257 257 259 231 235 248 211 215 220 206 215 246 286 302 308 309 316 315 46 22 6 131 175 289 318 321 306 313 347 82 44 11 36 337 316 295 273 259 250 233 231 234 213 222 213 215 259 201 155 205 183 170 184 168 154 149 141 159 201 242 256 249 248 250
226 226 225 227 228 231 235 238 239 240 242 241 242 243 244 246 247 248 250 250 249 251 250 251 253 251 248 234 239 244 238 236 232 230 243 266 283 290 296 296 296 285 245 133 272 258 262 278 302 321 306 323 320 198 85 42 312 304 281 285 284 268 246 220 209 203 189 192 192 194 265 224 181 172 151 164 166 150 153 155 151 179 211 243 262 252 245 241
230 232 233 235 235 237 240 242 244 245 246 246 246 245 246 247 247 248 249 250 250 249 249 250 250 249 247 242 244 244 243 248 251 257 261 268 274 278 284 284 275 267 239 214 252 278 291 273 246 314 294 302 316 299 340 294 214 285 254 219 284 292 266 205 177 164 165 169 177 163 287 249 180 142 146 164 164 153 158 165 167 186 209 226 238 256 260 253
231 234 236 238 241 242 243 244 245 246 248 248 247 247 248 247 246 248 249 249 249 249 249 248 248 246 241 249 253 245 241 246 253 258 261 261 264 271 272 270 265 257 251 249 266 280 272 243 213 259 265 273 322 340 302 246 199 280 278 203 227 276 286 179 145 151 159 173 180 170 282 259 142 140 160 169 170 165 168 172 174 180 190 217 210 234 262 254
232 234 236 239 242 243 245 245 244 246 247 248 248 247 247 246 245 247 247 248 248 249 251 249 248 244 247 256 253 247 244 244 249 253 255 258 262 266 261 260 261 260 263 264 262 256 236 202 220 252 196 180 267 280 282 246 199 199 254 265 223 196 210 173 157 169 168 168 180 176 265 242 138 155 171 174 176 174 179 177 175 180 181 194 177 179 231 252
234 236 237 238 240 243 244 244 243 244 245 245 245 244 244 243 243 245 246 247 248 249 250 249 240 235 253 257 243 246 244 237 244 250 251 254 250 245 254 260 259 261 260 252 237 217 207 192 240 244 158 153 208 224 262 273 253 194 190 267 260 220 201 156 179 203 193 142 185 198 245 293 137 167 175 181 182 182 191 183 179 188 183 184 180 178 193 200
235 236 237 238 239 240 240 241 242 242 242 241 239 241 241 241 241 244 245 243 244 244 237 233 240 243 250 250 243 245 243 237 239 239 238 241 232 231 248 252 239 250 217 199 202 187 194 182 208 239 205 225 232 206 233 260 262 214 171 238 257 249 231 196 240 230 208 189 213 209 227 267 172 167 179 187 185 190 199 186 182 189 184 187 186 180 176 175
236 236 236 237 238 237 236 239 240 241 241 237 236 238 237 238 240 239 240 238 234 237 237 218 197 265 251 234 230 234 239 239 235 231 228 225 226 222 212 180 180 172 152 178 190 176 189 180 175 262 223 216 228 202 185 210 255 288 188 226 269 271 241 237 232 184 188 201 247 219 223 254 219 169 182 191 188 196 204 189 184 187 185 190 185 180 177 188
236 236 236 236 235 234 234 235 236 238 237 232 230 229 229 231 235 241 239 228 208 193 240 211 192 188 287 221 216 221 228 231 226 225 220 213 209 190 173 166 166 163 160 171 183 181 182 165 163 249 235 208 209 207 207 230 268 317 346 299 315 316 276 285 316 171 178 185 231 234 239 256 250 183 182 192 194 201 204 183 178 183 184 186 183 185 183 197
236 234 233 232 232 232 232 232 233 234 231 228 219 210 215 211 213 243 227 222 221 217 225 215 206 220 262 188 203 211 212 210 208 210 212 208 193 176 168 158 166 186 206 178 164 183 176 173 202 209 222 223 216 214 220 245 268 301 358 292 289 293 277 293 316 162 144 147 235 245 258 264 266 242 189 186 192 202 198 176 177 185 184 183 182 183 186 202
238 232 228 228 230 229 230 230 229 228 225 222 210 191 181 194 196 206 208 229 242 235 232 231 219 229 235 208 201 205 190 180 190 203 205 188 172 166 167 166 166 197 228 205 150 132 178 211 225 216 230 242 245 227 218 237 265 279 290 278 279 273 265 280 263 158 122 113 256 271 277 269 266 269 194 174 183 204 198 185 185 186 178 180 182 182 190 205
241 234 227 225 226 226 228 228 225 223 217 214 209 194 183 196 199 192 209 258 263 248 237 233 228 232 233 222 213 202 183 168 183 203 194 171 169 174 171 177 190 197 207 200 126 95 218 238 231 229 243 245 232 41 22 265 292 293 287 276 269 268 279 286 262 135 117 139 261 280 280 272 267 273 198 174 186 196 192 187 184 180 173 176 180 183 191 196
240 235 228 224 222 222 222 222 221 218 212 210 210 201 197 198 200 216 266 293 280 259 239 231 228 228 225 222 216 202 197 191 190 204 194 173 177 187 179 178 205 217 199 188 175 184 219 236 224 227 237 228 170 113 64 317 295 250 246 256 258 252 254 271 254 143 156 205 263 294 289 277 266 264 206 169 176 155 159 164 161 166 168 175 181 184 188 184
240 231 227 223 220 219 216 214 218 216 212 211 210 204 203 203 205 230 259 280 282 254 238 234 228 224 219 220 223 215 215 219 209 204 196 182 179 185 190 192 203 223 212 195 201 220 239 249 203 209 211 190 197 202 181 217 256 228 212 218 242 249 234 239 278 198 176 219 241 275 292 274 248 235 202 125 133 143 167 174 166 169 169 174 176 172 176 181
240 228 223 218 217 216 209 215 220 217 212 212 211 204 200 199 197 219 249 267 267 233 229 227 222 225 219 217 223 215 215 227 223 211 199 192 185 179 194 200 201 223 220 207 210 234 249 240 183 184 185 172 204 226 186 182 234 250 216 209 221 238 255 283 321 340 350 298 232 166 286 283 261 213 187 151 146 171 182 187 195 195 189 185 179 171 168 171
240 230 219 212 211 203 198 217 227 221 215 216 211 200 194 186 178 186 143 299 270 200 182 200 205 217 209 201 195 187 204 227 217 209 197 195 192 184 187 194 197 225 225 215 221 242 250 191 165 167 162 163 202 229 192 172 202 253 258 281 226 221 257 313 315 317 269 279 237 132 204 270 312 280 171 157 174 185 177 190 198 194 197 196 188 186 180 171
240 231 218 210 205 193 191 210 227 218 212 221 208 190 187 179 166 155 125 319 269 175 148 176 187 191 195 188 179 175 182 164 171 186 186 189 194 191 193 187 182 215 238 224 229 219 116 140 137 145 164 178 204 221 203 185 199 236 280 4 49 79 92 256 261 237 239 289 278 172 184 266 288 263 165 157 173 186 187 206 198 185 191 192 186 191 188 182
244 233 219 210 203 196 190 195 218 211 201 210 194 180 177 171 162 138 125 290 240 146 146 167 170 169 166 174 178 170 124 137 144 180 182 184 190 190 208 211 184 186 193 197 220 280 101 163 172 169 186 203 202 226 203 189 196 218 335 48 71 75 35 280 249 243 272 308 257 199 174 254 273 243 145 157 182 210 205 202 195 183 184 184 180 182 184 184
247 237 221 208 201 197 187 180 201 209 196 175 173 174 167 158 153 117 109 237 162 128 139 149 151 152 144 161 182 167 128 139 125 172 178 184 185 175 205 225 225 210 200 207 221 266 58 174 183 175 199 210 157 20 4 168 170 175 130 71 67 69 53 308 256 247 289 272 231 202 182 217 265 233 153 167 214 227 210 189 185 180 179 179 175 173 174 176
244 239 223 204 196 193 187 183 190 196 184 166 167 166 158 152 144 127 190 222 214 120 123 141 148 155 152 156 183 172 144 105 91 137 162 181 181 171 132 191 241 286 218 223 232 195 104 68 341 189 174 135 116 52 21 63 126 147 131 86 81 127 81 14 266 126 293 263 222 202 198 201 262 253 170 186 244 210 175 161 171 172 173 175 173 172 172 170
242 234 219 205 199 195 193 194 191 186 176 168 165 160 155 148 124 200 197 222 310 130 121 142 149 153 163 159 162 180 169 124 130 142 148 162 174 184 146 157 194 304 321 271 253 189 137 128 352 150 127 114 109 71 30 39 110 134 123 117 117 359 40 27 274 152 227 258 227 203 205 202 229 272 168 196 279 158 152 162 170 167 168 170 171 173 174 173
240 231 220 212 206 200 200 202 197 185 174 167 164 160 157 150 238 227 204 84 51 185 144 153 161 159 172 172 168 177 168 149 160 163 155 158 172 188 195 187 163 161 239 233 220 212 213 201 158 142 163 158 137 86 47 13 31 148 140 136 132 169 337 267 209 188 227 248 264 228 218 213 227 253 230 196 104 98 151 168 169 166 166 167 168 172 176 177
236 229 221 215 209 205 204 206 203 190 176 166 165 161 156 189 204 217 207 165 160 191 134 146 166 168 171 176 172 163 157 156 167 168 156 159 178 200 214 215 189 187 201 188 190 187 246 238 164 146 228 189 175 164 175 231 186 178 164 151 157 176 219 240 207 218 242 242 295 308 258 258 262 260 249 192 76 48 117 161 168 166 165 166 167 171 175 179
232 226 222 217 213 210 205 203 205 198 185 174 165 158 180 207 210 213 212 208 184 74 118 143 155 163 176 186 163 153 158 168 165 165 154 159 182 205 210 218 212 213 122 150 190 178 213 279 179 164 179 184 192 203 182 147 168 194 180 169 184 180 197 221 195 220 243 239 312 308 197 182 208 246 303 69 63 47 95 145 159 160 162 164 164 169 174 178
233 228 223 218 213 211 206 203 204 199 192 185 172 170 187 205 219 216 214 206 158 109 132 142 146 159 185 193 154 163 168 148 166 166 172 181 196 199 195 204 205 199 166 179 203 175 207 259 186 151 149 168 188 213 166 123 158 207 176 189 220 201 189 207 185 184 134 351 282 242 239 223 198 221 97 90 77 59 103 136 144 149 157 160 163 169 174 178
236 228 220 216 215 212 207 206 204 196 192 188 181 198 198 207 213 201 202 191 170 148 136 142 155 168 185 177 165 188 162 103 161 167 195 205 217 212 203 193 192 195 189 183 182 167 191 251 342 52 82 155 173 231 165 135 158 184 171 198 207 141 117 184 272 53 82 287 253 177 244 280 318 277 205 134 103 73 131 141 143 151 157 160 166 172 175 179
233 225 217 216 220 215 204 205 204 193 191 191 195 209 207 215 211 178 188 188 165 147 149 175 188 171 183 179 175 188 165 122 168 171 181 194 222 217 209 196 185 195 206 197 199 199 168 204 286 61 63 346 12 24 36 15 104 137 177 199 125 48 33 115 272 353 160 259 258 171 205 225 194 236 206 146 153 174 204 168 150 155 161 165 173 177 178 181
231 224 219 219 221 213 202 205 202 190 190 199 212 216 217 222 220 209 213 202 165 158 179 214 192 172 190 188 170 178 173 161 175 180 173 177 220 202 194 199 186 193 206 203 207 296 156 180 278 331 44 93 26 50 33 318 6 120 216 245 107 116 241 153 196 247 209 245 274 208 205 202 201 203 171 188 195 181 188 188 166 165 169 172 176 179 181 183
229 220 223 224 220 213 208 207 198 186 188 209 210 216 222 218 223 224 248 249 184 175 199 215 200 194 200 191 166 170 180 177 168 177 188 183 213 192 181 189 190 191 197 196 201 247 140 184 247 317 358 98 67 170 179 217 227 66 348 323 81 159 204 169 190 221 194 237 265 238 214 221 222 191 176 196 197 176 177 188 186 179 177 177 179 181 184 185
222 212 231 227 216 213 210 202 190 180 187 214 205 213 215 206 216 217 221 239 201 181 208 211 206 207 203 200 181 165 185 192 171 181 203 180 188 206 183 182 182 184 187 189 197 174 112 201 212 314 334 123 156 208 193 194 198 182 201 234 191 169 142 219 244 209 176 225 252 256 259 255 253 230 190 194 186 175 179 184 187 182 179 182 183 184 185 187
216 209 239 223 215 211 202 189 183 180 187 211 216 224 216 211 218 212 217 232 248 31 272 223 212 209 199 201 190 161 176 197 182 187 206 188 191 222 186 182 174 159 160 178 201 187 163 194 174 165 246 206 213 221 193 183 188 192 196 194 193 182 156 217 245 218 182 210 206 235 265 260 252 340 327 185 169 177 181 178 177 179 180 184 187 188 189 190
213 219 229 213 209 202 190 178 183 183 187 208 209 210 205 220 225 206 213 229 234 298 319 356 237 208 198 201 190 161 166 192 195 191 200 203 201 194 183 180 169 158 147 162 204 184 133 125 173 197 198 206 232 143 114 119 139 201 238 203 190 190 184 205 226 209 187 236 181 140 274 272 273 334 354 27 82 146 169 171 170 177 182 184 187 190 193 194
211 225 218 207 207 195 185 179 191 181 207 219 206 210 205 208 219 195 198 215 217 190 187 224 326 192 285 232 174 163 165 186 203 195 197 205 195 75 39 158 159 160 154 152 194 147 102 108 184 223 285 27 337 117 89 46 81 224 258 208 196 209 203 209 217 170 184 214 159 175 259 267 313 2 10 29 65 103 146 164 168 172 179 183 186 190 194 197
218 215 190 189 197 191 184 182 179 187 212 197 197 224 217 213 217 199 191 202 203 198 201 216 232 150 111 19 33 169 171 192 214 202 195 199 180 28 19 154 159 165 162 153 165 158 156 148 159 196 249 262 273 223 353 340 195 212 228 201 207 213 196 197 193 172 248 211 160 189 245 251 297 351 16 45 85 95 121 152 165 170 175 181 185 189 194 197
218 204 184 183 187 188 189 192 183 187 201 185 194 214 210 216 216 205 200 198 203 208 207 216 211 147 133 60 31 280 212 198 205 190 127 140 122 29 27 168 172 151 119 89 146 161 165 161 167 193 225 227 226 226 220 206 178 212 218 195 206 208 192 186 174 215 239 203 162 208 238 222 223 206 157 136 129 120 118 135 155 167 173 180 185 189 194 199
201 197 200 189 193 201 210 199 186 179 184 188 196 205 205 213 211 198 196 197 203 200 180 147 155 161 172 164 183 232 236 259 59 118 173 142 118 18 25 155 171 117 105 112 139 148 131 173 193 202 223 230 224 216 217 150 156 198 209 198 204 208 197 189 200 217 221 176 194 223 209 173 203 182 173 180 158 147 150 140 143 155 167 176 183 187 193 199
209 200 182 182 210 231 263 226 192 184 184 186 185 192 201 205 197 183 196 200 194 182 156 22 176 190 199 197 210 226 214 190 86 177 184 132 107 39 49 96 121 139 135 137 151 137 102 210 212 213 227 233 194 161 324 75 184 208 213 205 205 206 197 197 215 213 173 168 231 217 168 184 211 186 180 185 164 157 171 161 153 158 167 174 179 185 192 198
208 208 189 189 194 205 225 222 199 193 189 184 188 191 193 200 200 189 196 198 177 175 175 265 217 208 202 195 205 219 192 185 226 205 175 118 124 118 68 40 39 173 145 138 161 141 136 219 217 214 228 232 84 63 349 41 206 233 232 216 207 203 199 204 218 213 177 195 237 191 174 200 207 186 182 176 176 179 174 171 167 165 170 175 180 188 196 202
203 215 189 190 195 200 207 203 189 196 194 182 193 201 192 201 204 193 173 144 180 193 193 211 220 211 203 191 187 193 185 193 221 216 177 146 159 149 129 192 217 190 153 142 185 153 152 215 199 195 228 229 56 341 351 88 240 278 262 236 217 210 207 211 223 220 200 227 239 122 195 232 190 175 182 176 186 176 152 154 159 161 170 180 185 192 199 204
206 214 183 180 206 225 199 190 169 197 203 187 197 204 197 205 205 195 168 164 189 196 192 215 223 203 194 191 185 204 208 202 216 213 160 151 177 178 185 186 155 160 160 149 170 159 175 203 144 139 222 238 263 335 21 94 242 268 259 250 233 213 207 219 230 220 216 243 233 117 228 267 36 98 113 141 160 142 124 134 146 162 179 184 188 196 201 206
216 215 194 176 196 187 182 182 171 193 208 193 201 203 202 212 206 193 186 194 201 190 187 213 221 188 183 199 199 217 218 203 217 207 169 176 191 186 194 177 143 148 170 171 165 161 179 197 107 147 212 231 219 174 139 65 27 279 261 242 211 190 198 212 221 199 205 227 212 150 227 236 122 74 82 105 125 126 136 154 167 185 194 194 198 204 210 218
224 222 207 190 194 184 179 181 182 195 203 198 206 205 205 217 206 184 188 212 212 206 202 209 203 145 172 205 210 223 220 200 208 202 181 186 182 166 175 173 163 168 174 170 170 167 175 179 158 179 207 221 184 167 141 84 12 265 258 225 184 188 206 205 198 199 202 192 170 207 221 182 123 97 90 102 129 158 191 201 204 205 201 205 216 221 226 230